Volver al catálogo

FENGYUN 1C DEB

ActivoSSO
NORAD 36279·DEBRIS·🇨🇳 China

Lanzado May 10, 1999 desde Taiyuan Satellite Launch Center

Loading…

Próximos Pases (próximas 24 horas)

TLE

ActualizadoSource: Space-Track

Época: Sep 12, 2026, 15:17 UTC

1 36279U 99025DXG 26255.63699534  .00000108  00000-0  76394-4 0  9999
2 36279  98.5933 228.0405 0061752 350.5683   9.4327 14.14857705929128

Sigue FENGYUN 1C DEB en tiempo real con AllMySat

Download on the App Store